This is the latest recevied weather packets stored in our database for station/object ED1ZAI-13. If no packets are shown the sender has not sent any weather packets the latest 10 day(s).
| Time | Temp. | Humidity | Pressure | Rain* | Wind** | Luminosity | Snow |
|---|---|---|---|---|---|---|---|
| 1788420465 | 18.33° C | 56% | 1014.4 hPa | - | - | - | - |
| 1788419865 | 18.89° C | 55% | 1015.1 hPa | - | - | - | - |
| 1788419264 | 18.89° C | 56% | 1014.6 hPa | - | - | - | - |
| 1788418664 | 18.33° C | 56% | 1014.8 hPa | - | - | - | - |
| 1788418064 | 17.78° C | 56% | 1014.6 hPa | - | - | - | - |
| 1788417463 | 17.22° C | 58% | 1013.3 hPa | - | - | - | - |
| 1788416863 | 17.22° C | 58% | 1013.4 hPa | - | - | - | - |
| 1788416285 | 17.22° C | 57% | 1013.7 hPa | - | - | - | - |
| 1788415664 | 17.78° C | 56% | 1014.7 hPa | - | - | - | - |
| 1788415064 | 16.67° C | 58% | 1013.2 hPa | - | - | - | - |
| 1788414464 | 16.67° C | 59% | 1012.6 hPa | - | - | - | - |
| 1788413863 | 16.67° C | 58% | 1014.1 hPa | - | - | - | - |
| 1788413263 | 17.78° C | 55% | 1016.1 hPa | - | - | - | - |
| 1788412663 | 18.33° C | 54% | 1016.5 hPa | - | - | - | - |
| 1788412065 | 18.33° C | 54% | 1016.4 hPa | - | - | - | - |
| 1788411464 | 17.78° C | 56% | 1016.2 hPa | - | - | - | - |
| 1788410886 | 17.78° C | 55% | 1016.4 hPa | - | - | - | - |
| 1788410264 | 17.22° C | 57% | 1015.6 hPa | - | - | - | - |
| 1788409663 | 17.22° C | 56% | 1015.9 hPa | - | - | - | - |
| 1788409063 | 17.78° C | 54% | 1016.7 hPa | - | - | - | - |
| 1788408463 | 18.33° C | 53% | 1017.3 hPa | - | - | - | - |
| 1788407864 | 18.33° C | 53% | 1017.5 hPa | - | - | - | - |
| 1788407264 | 17.78° C | 53% | 1017.4 hPa | - | - | - | - |
| 1788406664 | 17.78° C | 54% | 1017 hPa | - | - | - | - |
| 1788406064 | 17.78° C | 54% | 1017.1 hPa | - | - | - | - |
* Rain since midnight (hover to see other rain measurements)
** Current wind speed in m/s (hover to see current wind gust speed)